Location: Góry Miechowskie
(50.3599°N, 20.1803°E)
Time: 17:08:53
(UTC+00:00)

Meteor 1-11 - Visible Passes

Search period start: 08 September 2024 00:00
Search period end: 18 September 2024 00:00
Orbit: 841 x 884 km, 81.2° (Epoch: 07 September)

Date Brightness Start Highest point End Pass type
(mag) Time Alt. Az. Time Alt. Az. Time Alt. Az.
08 Sep 5.4 00:40:28 10° NNW 00:44:05 30° WNW 00:44:05 30° WNW visible
08 Sep 5.3 22:48:37 10° N 22:53:12 40° NE 22:53:12 40° NE visible
09 Sep 5.5 00:32:02 10° NNW 00:35:26 29° NW 00:35:26 29° NW visible
09 Sep 5.4 22:40:12 10° N 22:44:34 38° NE 22:44:34 38° NE visible
10 Sep 5.6 00:23:36 10° NNW 00:26:49 28° NW 00:26:49 28° NW visible
10 Sep 5.5 22:31:46 10° N 22:35:58 37° NE 22:35:58 37° NE visible
11 Sep 5.7 00:15:10 10° NNW 00:18:12 27° NW 00:18:12 27° NW visible
11 Sep 5.5 22:23:21 10° N 22:27:22 35° NE 22:27:22 35° NE visible
12 Sep 5.8 00:06:43 10° NNW 00:09:38 26° NW 00:09:38 26° NW visible
12 Sep 5.6 22:14:56 10° N 22:18:48 34° NNE 22:18:48 34° NNE visible
12 Sep 5.9 23:58:17 10° NNW 00:01:03 25° NW 00:01:03 25° NW visible
13 Sep 5.7 22:06:30 10° N 22:10:15 33° NNE 22:10:15 33° NNE visible
13 Sep 5.9 23:49:51 10° NNW 23:52:29 25° NW 23:52:29 25° NW visible
14 Sep 5.7 21:58:05 10° N 22:01:42 32° NNE 22:01:42 32° NNE visible
14 Sep 6.0 23:41:24 10° NNW 23:43:57 24° NW 23:43:57 24° NW visible
15 Sep 5.8 21:49:39 10° N 21:53:10 31° NNE 21:53:10 31° NNE visible
15 Sep 6.1 23:32:59 10° NNW 23:35:25 23° NW 23:35:25 23° NW visible
16 Sep 5.8 21:41:13 10° N 21:44:38 30° NNE 21:44:38 30° NNE visible
16 Sep 6.1 23:24:32 10° NNW 23:26:53 23° NW 23:26:53 23° NW visible
17 Sep 5.8 21:32:47 10° N 21:36:07 29° NNE 21:36:07 29° NNE visible
17 Sep 6.2 23:16:06 10° NNW 23:18:23 23° NW 23:18:23 23° NW visible
